DUZEAR1 KHOE-KVLD

Flight info

Callsign DUZEAR1
Flight time 0h 12m
Altitude 2500
Route KHOE/32 N0236F025 DCT OTK DCT KVLD/22
Aircraft PC12/L-SDE2FGIRWY/SB1

Departure

Time 2026-04-18 13:32
Airport Homerville Airport (KHOE)

Arrival

Time 2026-04-18 13:45
Airport Valdosta Regional Airport (KVLD)
Time Latitude Longitude Altitude Speed Heading
2026-04-18 13:14 31.05278 -82.76919 191 ft 0 kts 315°
2026-04-18 13:30 31.05279 -82.76922 191 ft 1 kts 252°
2026-04-18 13:31 31.05241 -82.76926 204 ft 11 kts 209°
2026-04-18 13:31 31.05240 -82.77013 196 ft 22 kts 315°
2026-04-18 13:31 31.05516 -82.77329 196 ft 90 kts 315°
2026-04-18 13:31 31.06063 -82.77951 406 ft 128 kts 315°
2026-04-18 13:32 31.06790 -82.78719 742 ft 158 kts 330°
2026-04-18 13:32 31.07911 -82.78569 1025 ft 188 kts 44°
2026-04-18 13:32 31.08124 -82.77072 1252 ft 204 kts 109°
2026-04-18 13:32 31.07318 -82.75706 1486 ft 206 kts 133°
2026-04-18 13:33 31.06372 -82.74483 1959 ft 205 kts 137°
2026-04-18 13:33 31.05347 -82.73242 1966 ft 218 kts 138°
2026-04-18 13:33 31.04032 -82.72568 2160 ft 209 kts 184°
2026-04-18 13:33 31.02834 -82.73402 2175 ft 211 kts 239°
2026-04-18 13:34 31.02314 -82.74995 2211 ft 211 kts 252°
2026-04-18 13:34 31.01876 -82.76622 2380 ft 208 kts 251°
2026-04-18 13:34 31.01447 -82.78219 2588 ft 209 kts 252°
2026-04-18 13:34 31.00994 -82.79828 2809 ft 210 kts 249°
2026-04-18 13:35 31.00491 -82.81471 2676 ft 219 kts 249°
2026-04-18 13:35 30.99947 -82.83138 2560 ft 220 kts 248°
2026-04-18 13:35 30.99408 -82.84784 2514 ft 217 kts 248°
2026-04-18 13:35 30.98859 -82.86413 2477 ft 214 kts 247°
2026-04-18 13:36 30.98294 -82.88010 2505 ft 213 kts 246°
2026-04-18 13:36 30.97733 -82.89597 2494 ft 211 kts 246°
2026-04-18 13:36 30.97274 -82.90838 2467 ft 211 kts 245°
2026-04-18 13:37 30.96672 -82.92376 2489 ft 208 kts 244°
2026-04-18 13:37 30.96058 -82.93916 2466 ft 210 kts 244°
2026-04-18 13:37 30.95432 -82.95449 2478 ft 208 kts 242°
2026-04-18 13:37 30.94771 -82.96950 2432 ft 211 kts 241°
2026-04-18 13:38 30.94186 -82.98501 2430 ft 209 kts 247°
2026-04-18 13:38 30.93655 -83.00080 2431 ft 209 kts 246°
2026-04-18 13:38 30.93104 -83.01643 2434 ft 209 kts 245°
2026-04-18 13:38 30.92522 -83.03198 2432 ft 209 kts 244°
2026-04-18 13:39 30.91948 -83.04753 2450 ft 208 kts 245°
2026-04-18 13:39 30.91386 -83.06312 2435 ft 209 kts 245°
2026-04-18 13:39 30.90819 -83.07876 2428 ft 208 kts 245°
2026-04-18 13:39 30.90273 -83.09399 2305 ft 203 kts 246°
2026-04-18 13:40 30.89713 -83.10899 2140 ft 201 kts 244°
2026-04-18 13:40 30.89142 -83.12383 1985 ft 201 kts 244°
2026-04-18 13:40 30.88637 -83.13692 1888 ft 200 kts 244°
2026-04-18 13:40 30.88074 -83.15164 1864 ft 198 kts 245°
2026-04-18 13:41 30.87530 -83.16642 1649 ft 202 kts 245°
2026-04-18 13:41 30.86953 -83.18116 1526 ft 199 kts 244°
2026-04-18 13:41 30.86396 -83.19468 1357 ft 172 kts 242°
2026-04-18 13:41 30.85875 -83.20704 1313 ft 166 kts 243°
2026-04-18 13:42 30.85301 -83.21801 1193 ft 151 kts 231°
2026-04-18 13:42 30.84628 -83.22566 1032 ft 133 kts 220°
2026-04-18 13:42 30.83947 -83.23223 865 ft 118 kts 218°
2026-04-18 13:42 30.83305 -83.23812 851 ft 118 kts 217°
2026-04-18 13:43 30.82660 -83.24390 786 ft 116 kts 217°
2026-04-18 13:43 30.82062 -83.24933 668 ft 108 kts 214°
2026-04-18 13:43 30.81450 -83.25448 598 ft 107 kts 214°
2026-04-18 13:43 30.80857 -83.25936 513 ft 105 kts 214°
2026-04-18 13:44 30.80267 -83.26441 479 ft 102 kts 215°
2026-04-18 13:44 30.79710 -83.26905 428 ft 97 kts 215°
2026-04-18 13:44 30.79157 -83.27372 294 ft 98 kts 215°
2026-04-18 13:44 30.78652 -83.27798 205 ft 80 kts 216°
2026-04-18 13:45 30.78328 -83.28048 203 ft 23 kts 179°
2026-04-18 13:45 30.78328 -83.28013 203 ft 17 kts 79°
2026-04-18 13:45 30.78335 -83.27850 203 ft 23 kts 88°
2026-04-18 13:45 30.78341 -83.27621 203 ft 31 kts 88°
2026-04-18 13:46 30.78347 -83.27440 205 ft 20 kts 88°
2026-04-18 13:46 30.78358 -83.27314 204 ft 1 kts 78°
2026-04-18 13:49 30.78359 -83.27312 204 ft 0 kts 77°
2026-04-18 13:54 30.78314 -83.27254 211 ft 22 kts 172°
2026-04-18 13:54 30.78261 -83.27192 209 ft 0 kts 80°
2026-04-18 13:55 30.78263 -83.27148 203 ft 3 kts 112°
2026-04-18 13:55 30.78210 -83.27146 207 ft 8 kts 179°
2026-04-18 13:55 30.78163 -83.27102 205 ft 7 kts 66°
2026-04-18 13:55 30.78192 -83.27101 205 ft 0 kts 260°
2026-04-18 13:56 30.78191 -83.27102 203 ft 0 kts 258°